Location: Pilipovskiye Korichintsy
(49.1833°N, 27.4667°E)
Time: 23:47:18
(UTC+00:00)

Lacrosse 5 - Pass Details

Date: 26 October 2020
Orbit: 714 x 725 km, 57.0° (Epoch: 30 November)

Event Time Altitude Azimuth Distance (km) Brightness Sun altitude
Rises 17:28:24 0° 293° (WNW) 3,119 6.4 -25.0°
Reaches altitude 10° 17:30:57 10° 303° (WNW) 2,199 5.2 -25.4°
Maximum altitude 17:35:37 36° 10° (N) 1,131 2.8 -26.1°
Enters shadow 17:35:38 36° 10° (N) 1,131 2.8 -26.2°
